�������l�o���
Date,Time,MP-1(��Sv/h),MP-2(��Sv/h),MP-3(��Sv/h),MP-4(��Sv/h),MP-5(��Sv/h),MP-6(��Sv/h),MP-7(��Sv/h),MP-8(��Sv/h),����,����(m/s),���J
2017/09/29,00:00,0.907,1.435,0.935,1.726,1.169,0.501,0.917,0.849,�k�k��,2.6,��
2017/09/29,00:10,0.908,1.433,0.935,1.727,1.167,0.500,0.916,0.848,�k�k��,3.1,��
2017/09/29,00:20,0.909,1.433,0.935,1.727,1.169,0.501,0.917,0.850,�k��,2.6,��
2017/09/29,00:30,0.909,1.435,0.934,1.728,1.169,0.501,0.919,0.847,�k��,2.5,��
2017/09/29,00:40,0.908,1.434,0.933,1.730,1.171,0.501,0.918,0.847,�k�k��,3.0,��
2017/09/29,00:50,0.909,1.434,0.934,1.728,1.171,0.500,0.917,0.848,�k�k��,3.2,��
2017/09/29,01:00,0.908,1.434,0.935,1.725,1.170,0.501,0.920,0.849,�k�k��,3.7,��
2017/09/29,01:10,0.910,1.435,0.936,1.725,1.169,0.501,0.919,0.848,�k�k��,4.0,��
2017/09/29,01:20,0.908,1.432,0.937,1.728,1.169,0.501,0.919,0.849,�k�k��,4.0,��
2017/09/29,01:30,0.909,1.434,0.934,1.728,1.169,0.499,0.917,0.849,�k�k��,3.9,��
2017/09/29,01:40,0.910,1.433,0.934,1.727,1.170,0.500,0.918,0.850,�k��,4.6,��
2017/09/29,01:50,0.909,1.432,0.935,1.730,1.173,0.501,0.916,0.850,�k��,4.8,��
2017/09/29,02:00,0.908,1.434,0.935,1.730,1.173,0.501,0.919,0.849,�k��,4.6,��
2017/09/29,02:10,0.908,1.433,0.935,1.727,1.173,0.500,0.918,0.849,�k��,4.7,��
2017/09/29,02:20,0.909,1.435,0.934,1.731,1.172,0.500,0.919,0.849,�k��,4.7,��
2017/09/29,02:30,0.909,1.434,0.934,1.730,1.173,0.501,0.919,0.848,�k��,4.4,��
2017/09/29,02:40,0.907,1.433,0.935,1.730,1.168,0.502,0.918,0.849,�k��,4.9,��
2017/09/29,02:50,0.909,1.435,0.936,1.728,1.171,0.500,0.919,0.849,�k��,4.5,��
2017/09/29,03:00,0.908,1.433,0.936,1.728,1.172,0.499,0.920,0.849,�k��,4.4,��
2017/09/29,03:10,0.907,1.435,0.934,1.729,1.171,0.499,0.918,0.850,�k��,4.3,��
2017/09/29,03:20,0.905,1.432,0.936,1.729,1.169,0.501,0.919,0.849,�k�k��,4.0,��
2017/09/29,03:30,0.908,1.432,0.935,1.730,1.172,0.500,0.919,0.849,�k�k��,3.8,��
2017/09/29,03:40,0.909,1.435,0.935,1.729,1.173,0.501,0.918,0.848,�k�k��,4.3,��
2017/09/29,03:50,0.909,1.433,0.935,1.730,1.174,0.501,0.918,0.848,�k�k��,3.0,��
2017/09/29,04:00,0.905,1.434,0.936,1.732,1.173,0.500,0.918,0.849,�k��,2.5,��
2017/09/29,04:10,0.905,1.434,0.933,1.730,1.172,0.500,0.917,0.848,�k��,2.6,��
2017/09/29,04:20,0.905,1.433,0.935,1.732,1.172,0.500,0.917,0.851,���k��,1.7,��
2017/09/29,04:30,0.907,1.435,0.933,1.729,1.172,0.501,0.919,0.850,���k��,2.0,��
2017/09/29,04:40,0.907,1.434,0.934,1.729,1.173,0.500,0.919,0.850,���k��,2.0,��
2017/09/29,04:50,0.906,1.435,0.934,1.731,1.173,0.501,0.920,0.849,���k��,1.5,��
2017/09/29,05:00,0.909,1.431,0.935,1.730,1.171,0.500,0.919,0.849,���k��,2.0,��
2017/09/29,05:10,0.906,1.436,0.935,1.729,1.174,0.501,0.918,0.849,���k��,1.2,��
2017/09/29,05:20,0.907,1.435,0.935,1.729,1.173,0.499,0.917,0.850,�k��,1.9,��
2017/09/29,05:30,0.905,1.435,0.936,1.728,1.173,0.501,0.919,0.849,���k��,1.7,��
2017/09/29,05:40,0.907,1.433,0.935,1.731,1.172,0.499,0.917,0.850,��,1.5,��
2017/09/29,05:50,0.906,1.434,0.935,1.731,1.174,0.500,0.919,0.850,��,0.9,��
2017/09/29,06:00,0.907,1.435,0.935,1.734,1.173,0.501,0.918,0.849,-,CALM,��
2017/09/29,06:10,0.908,1.436,0.934,1.730,1.173,0.499,0.917,0.848,���쐼,0.9,��
2017/09/29,06:20,0.909,1.435,0.936,1.729,1.174,0.500,0.918,0.850,��,1.1,��
2017/09/29,06:30,0.907,1.436,0.935,1.730,1.174,0.501,0.920,0.849,���k��,1.7,��
2017/09/29,06:40,0.905,1.437,0.937,1.732,1.173,0.500,0.919,0.849,���쐼,1.2,��
2017/09/29,06:50,0.908,1.439,0.937,1.729,1.173,0.500,0.920,0.849,���쐼,0.9,��
2017/09/29,07:00,0.906,1.439,0.936,1.730,1.172,0.501,0.918,0.851,��,0.8,��
2017/09/29,07:10,0.909,1.439,0.937,1.729,1.174,0.500,0.921,0.849,��,0.6,��
2017/09/29,07:20,0.907,1.440,0.936,1.734,1.175,0.500,0.921,0.852,��,0.9,��
2017/09/29,07:30,0.911,1.438,0.935,1.732,1.176,0.501,0.920,0.849,��,0.9,��
2017/09/29,07:40,0.910,1.437,0.938,1.735,1.177,0.503,0.924,0.850,��쐼,0.6,��
2017/09/29,07:50,0.911,1.437,0.936,1.733,1.179,0.502,0.921,0.852,��쓌,1.1,��
2017/09/29,08:00,0.912,1.441,0.937,1.732,1.178,0.501,0.922,0.852,��쓌,1.1,��
2017/09/29,08:10,0.910,1.441,0.938,1.736,1.179,0.501,0.920,0.851,�쓌,1.5,��
2017/09/29,08:20,0.909,1.443,0.937,1.732,1.180,0.501,0.921,0.851,���쓌,2.0,��
2017/09/29,08:30,0.911,1.438,0.938,1.732,1.179,0.500,0.918,0.851,�쓌,1.9,��
2017/09/29,08:40,0.912,1.435,0.939,1.734,1.179,0.500,0.920,0.853,�쓌,3.0,��
2017/09/29,08:50,0.912,1.442,0.939,1.737,1.181,0.501,0.920,0.852,��쓌,3.3,��
2017/09/29,09:00,0.913,1.440,0.940,1.738,1.181,0.501,0.920,0.853,��쓌,4.5,��
2017/09/29,09:10,0.911,1.443,0.937,1.738,1.180,0.501,0.920,0.850,��쓌,4.1,��
2017/09/29,09:20,0.909,1.443,0.940,1.739,1.181,0.503,0.919,0.850,��쓌,4.1,��
2017/09/29,09:30,0.913,1.443,0.938,1.738,1.181,0.500,0.922,0.849,��쓌,5.0,��
2017/09/29,09:40,0.913,1.447,0.938,1.739,1.182,0.502,0.922,0.849,��쓌,5.6,��
2017/09/29,09:50,0.913,1.445,0.937,1.739,1.180,0.501,0.921,0.850,��쓌,6.0,��
2017/09/29,10:00,0.914,1.447,0.940,1.737,1.183,0.500,0.923,0.850,��쓌,6.6,��
2017/09/29,10:10,0.917,1.448,0.940,1.736,1.186,0.503,0.922,0.850,��쓌,6.2,��
2017/09/29,10:20,0.915,1.448,0.941,1.739,1.186,0.505,0.922,0.850,��쓌,6.6,��
2017/09/29,10:30,0.916,1.451,0.939,1.741,1.188,0.502,0.922,0.851,��쓌,6.5,��
2017/09/29,10:40,0.916,1.451,0.940,1.740,1.187,0.503,0.923,0.850,��쓌,7.2,��
2017/09/29,10:50,0.917,1.450,0.941,1.740,1.187,0.503,0.922,0.852,��쓌,6.3,��
2017/09/29,11:00,0.917,1.450,0.939,1.741,1.190,0.504,0.924,0.851,��쓌,7.7,��
2017/09/29,11:10,0.918,1.453,0.942,1.743,1.193,0.504,0.925,0.851,��쓌,8.0,��
2017/09/29,11:20,0.919,1.451,0.944,1.744,1.190,0.503,0.924,0.851,��쓌,9.1,��
2017/09/29,11:30,0.918,1.451,0.943,1.744,1.189,0.505,0.924,0.851,��쓌,9.5,��
2017/09/29,11:40,0.918,1.456,0.945,1.744,1.195,0.506,0.925,0.850,��쓌,9.2,��
2017/09/29,11:50,0.921,1.456,0.942,1.743,1.193,0.506,0.925,0.852,��쓌,8.6,��
2017/09/29,12:00,0.921,1.456,0.945,1.746,1.195,0.506,0.924,0.852,��쓌,8.7,��
2017/09/29,12:10,0.922,1.459,0.945,1.746,1.196,0.506,0.924,0.852,��쓌,9.6,��
2017/09/29,12:20,0.923,1.458,0.947,1.749,1.194,0.505,0.927,0.851,��쓌,10.6,��
2017/09/29,12:30,0.922,1.463,0.946,1.747,1.197,0.507,0.923,0.852,��쓌,8.5,��
2017/09/29,12:40,0.923,1.463,0.948,1.744,1.194,0.506,0.925,0.852,��쓌,9.8,��
2017/09/29,12:50,0.922,1.464,0.946,1.750,1.198,0.507,0.924,0.853,��쓌,8.3,��
2017/09/29,13:00,0.923,1.466,0.947,1.748,1.200,0.507,0.924,0.854,��쓌,8.8,��
2017/09/29,13:10,0.924,1.465,0.947,1.748,1.197,0.506,0.926,0.853,��,7.2,��
2017/09/29,13:20,0.924,1.461,0.949,1.750,1.201,0.507,0.928,0.853,��,8.1,��
2017/09/29,13:30,0.922,1.462,0.947,1.748,1.199,0.507,0.928,0.854,��,7.9,��
2017/09/29,13:40,0.924,1.462,0.950,1.747,1.198,0.507,0.926,0.853,��,7.5,��
2017/09/29,13:50,0.925,1.462,0.947,1.748,1.201,0.508,0.926,0.854,��,8.9,��
2017/09/29,14:00,0.925,1.463,0.948,1.751,1.201,0.507,0.925,0.853,��,8.7,��
2017/09/29,14:10,0.926,1.465,0.947,1.750,1.198,0.508,0.927,0.854,��쓌,9.0,��
2017/09/29,14:20,0.924,1.466,0.950,1.749,1.199,0.508,0.927,0.854,��,6.7,��
2017/09/29,14:30,0.924,1.465,0.949,1.750,1.200,0.509,0.927,0.854,��쓌,6.3,��
2017/09/29,14:40,0.928,1.467,0.949,1.751,1.199,0.509,0.926,0.852,��,6.0,��
2017/09/29,14:50,0.927,1.464,0.950,1.750,1.203,0.508,0.928,0.853,��쓌,8.1,��
2017/09/29,15:00,0.925,1.464,0.948,1.751,1.202,0.508,0.927,0.855,��,7.5,��
2017/09/29,15:10,0.926,1.464,0.949,1.753,1.201,0.508,0.927,0.852,��쓌,9.0,��
2017/09/29,15:20,0.924,1.466,0.950,1.751,1.202,0.508,0.925,0.854,��쓌,7.5,��
2017/09/29,15:30,0.926,1.466,0.950,1.750,1.202,0.507,0.927,0.854,��,7.1,��
2017/09/29,15:40,0.925,1.465,0.951,1.749,1.200,0.508,0.925,0.854,��,6.5,��
2017/09/29,15:50,0.926,1.465,0.951,1.751,1.200,0.509,0.925,0.854,��쓌,6.1,��
2017/09/29,16:00,0.927,1.469,0.950,1.753,1.199,0.509,0.928,0.852,��,6.9,��
2017/09/29,16:10,0.927,1.465,0.949,1.750,1.200,0.509,0.926,0.854,��,6.3,��
2017/09/29,16:20,0.927,1.468,0.951,1.750,1.202,0.507,0.926,0.851,��쓌,6.4,��
2017/09/29,16:30,0.928,1.469,0.948,1.750,1.202,0.508,0.927,0.854,��,6.3,��
2017/09/29,16:40,0.927,1.466,0.950,1.749,1.201,0.509,0.927,0.853,��,5.4,��
2017/09/29,16:50,0.926,1.469,0.950,1.752,1.205,0.509,0.924,0.855,��,5.2,��
2017/09/29,17:00,0.926,1.471,0.950,1.752,1.201,0.509,0.927,0.854,��,5.8,��
2017/09/29,17:10,0.925,1.470,0.950,1.750,1.200,0.511,0.927,0.855,��,6.1,��
2017/09/29,17:20,0.927,1.471,0.951,1.752,1.203,0.510,0.927,0.856,��,6.2,��
2017/09/29,17:30,0.925,1.471,0.948,1.751,1.201,0.510,0.926,0.857,��,5.8,��
2017/09/29,17:40,0.926,1.470,0.949,1.749,1.200,0.510,0.927,0.856,��,6.8,��
2017/09/29,17:50,0.925,1.473,0.950,1.753,1.202,0.511,0.926,0.857,��,6.6,��
2017/09/29,18:00,0.923,1.471,0.950,1.751,1.204,0.509,0.929,0.856,��쐼,6.6,��
2017/09/29,18:10,0.925,1.473,0.952,1.748,1.204,0.510,0.928,0.855,��쐼,5.2,��
2017/09/29,18:20,0.927,1.470,0.952,1.751,1.204,0.511,0.928,0.857,��쐼,4.4,��
2017/09/29,18:30,0.929,1.472,0.953,1.748,1.208,0.510,0.929,0.856,��쐼,4.1,��
2017/09/29,18:40,0.924,1.469,0.953,1.749,1.205,0.510,0.929,0.854,��쐼,1.7,��
2017/09/29,18:50,0.923,1.472,0.953,1.751,1.206,0.510,0.928,0.856,�쐼,2.6,��
2017/09/29,19:00,0.925,1.471,0.953,1.749,1.206,0.510,0.929,0.856,���쐼,3.1,��
2017/09/29,19:10,0.923,1.471,0.951,1.750,1.204,0.510,0.929,0.854,���쐼,4.0,��
2017/09/29,19:20,0.925,1.470,0.952,1.750,1.205,0.509,0.927,0.857,�쐼,3.7,��
2017/09/29,19:30,0.927,1.472,0.951,1.751,1.206,0.510,0.928,0.854,�쐼,3.6,��
2017/09/29,19:40,0.928,1.471,0.950,1.753,1.205,0.508,0.929,0.855,���쐼,4.0,��
2017/09/29,19:50,0.927,1.471,0.949,1.750,1.204,0.510,0.927,0.855,���쐼,3.9,��
2017/09/29,20:00,0.927,1.469,0.951,1.751,1.205,0.510,0.927,0.854,���쐼,4.4,��
2017/09/29,20:10,0.925,1.468,0.952,1.754,1.206,0.508,0.928,0.855,��,4.9,��
2017/09/29,20:20,0.927,1.468,0.953,1.753,1.206,0.508,0.926,0.856,��,4.7,��
2017/09/29,20:30,0.926,1.471,0.951,1.751,1.206,0.509,0.928,0.856,��,5.3,��
2017/09/29,20:40,0.927,1.468,0.950,1.754,1.204,0.509,0.927,0.857,��,4.7,��
2017/09/29,20:50,0.929,1.468,0.952,1.752,1.207,0.509,0.928,0.855,��,4.2,��
2017/09/29,21:00,0.929,1.469,0.951,1.750,1.204,0.509,0.928,0.855,��,4.4,��
2017/09/29,21:10,0.926,1.467,0.952,1.749,1.206,0.509,0.928,0.857,��,4.1,��
2017/09/29,21:20,0.928,1.467,0.949,1.752,1.205,0.508,0.929,0.855,���쐼,5.0,��
2017/09/29,21:30,0.926,1.470,0.950,1.752,1.203,0.509,0.928,0.855,���쐼,6.5,��
2017/09/29,21:40,0.927,1.468,0.949,1.751,1.205,0.509,0.929,0.854,���쐼,6.4,��
2017/09/29,21:50,0.926,1.471,0.950,1.751,1.205,0.509,0.928,0.853,���쐼,5.9,��
2017/09/29,22:00,0.927,1.469,0.953,1.750,1.204,0.509,0.928,0.856,��,6.0,��
2017/09/29,22:10,0.927,1.469,0.952,1.751,1.205,0.507,0.927,0.854,��,7.4,��
2017/09/29,22:20,0.925,1.468,0.951,1.754,1.203,0.509,0.927,0.856,��,7.7,��
2017/09/29,22:30,0.924,1.470,0.951,1.751,1.204,0.509,0.928,0.857,���k��,7.0,��
2017/09/29,22:40,0.927,1.472,0.954,1.751,1.202,0.508,0.928,0.856,���k��,6.3,��
2017/09/29,22:50,0.926,1.471,0.950,1.754,1.203,0.507,0.928,0.856,�k��,6.3,��
2017/09/29,23:00,0.926,1.470,0.953,1.754,1.203,0.509,0.927,0.857,���k��,6.6,��
2017/09/29,23:10,0.926,1.471,0.953,1.752,1.205,0.506,0.927,0.856,���k��,6.5,��
2017/09/29,23:20,0.926,1.470,0.952,1.751,1.206,0.508,0.928,0.856,���k��,5.6,��
2017/09/29,23:30,0.923,1.468,0.953,1.750,1.205,0.510,0.927,0.856,���k��,5.5,��
2017/09/29,23:40,0.927,1.470,0.952,1.754,1.206,0.509,0.928,0.856,���k��,6.5,��
2017/09/29,23:50,0.925,1.470,0.953,1.751,1.202,0.508,0.928,0.857,���k��,6.1,��
